Terminal Aerodrome Forecast
Issued by NWS Wichita, KS

Home | Current Version | Previous Version | Graphics & Text | Print | Product List | Glossary On
Versions: 1 2 3 4 5 6 7 8 9 10 11 12 13 14 15 16 17 18 19 20 21 22 23 24 25 26 27 28 29 30 31
000
FTUS43 KICT 190520
TAFICT
TAF
KICT 190520Z 1906/2006 VRB03KT 4SM BR OVC004
      TEMPO 1911/1915 1/2SM FG VV002
     FM191800 18005KT P6SM OVC015
     FM192000 18005KT P6SM FEW015 SCT050 BKN100
     FM200300 19005KT 3SM BR BKN015=

USA.gov is the U.S. government's official web portal to all federal, state and local government web resources and services.